Theta_e
295 295 295 294 294 294 294 294 294 295 295 295 296 297 297 297 298 298 298 299 300 301 303 303 304 306 306 307 307 308 307 308 305 307 304 297 296 296 293 292 291 293 293
292 292 291 291 291 291 290 291 292 292 292 292 292 292 292 293 293 294 293 294 294 295 296 297 298 300 299 301 303 302 302 304 304 300 303 297 294 292 291 289 289 290 291
288 288 287 287 287 287 288 288 289 289 289 289 289 289 289 289 290 290 290 290 290 291 292 293 293 294 293 294 295 297 298 300 300 298 297 292 291 289 288 288 288 288 289
285 285 284 284 285 285 285 286 286 286 286 286 287 286 287 287 288 288 288 288 288 288 289 290 290 290 290 290 289 290 292 293 294 294 294 294 290 287 287 286 286 285 286
282 282 282 283 283 283 283 283 283 283 284 284 284 284 285 286 286 287 286 286 286 285 286 287 287 286 287 288 288 287 287 287 289 290 291 291 289 285 285 286 285 286 284
281 280 280 280 281 280 280 280 281 281 281 281 281 281 282 283 287 288 287 285 284 284 283 284 284 283 284 287 287 288 288 286 285 286 288 288 289 287 286 286 285 282 282
280 279 279 279 279 279 279 279 279 279 279 279 280 280 280 281 286 287 287 284 283 282 282 282 282 283 282 282 284 286 285 287 288 286 285 286 287 288 286 285 284 284 285
278 278 278 278 278 278 278 277 278 278 278 278 278 279 279 280 284 285 286 282 281 281 281 281 281 281 282 283 283 282 282 282 282 283 283 284 286 285 285 286 286 284 281
277 277 276 277 276 276 276 276 276 277 277 277 278 277 277 278 283 284 284 281 281 281 281 281 281 281 283 286 283 282 282 282 285 287 287 288 288 288 287 282 278 278 280
276 276 275 275 275 274 275 275 276 276 277 277 277 277 276 277 281 283 283 281 280 280 280 281 282 281 284 285 283 282 281 282 282 282 281 281 282 280 284 282 282 278 278
276 275 275 274 274 274 274 275 275 274 275 274 274 275 275 276 277 282 284 281 281 280 280 280 281 283 284 285 286 283 282 284 284 283 281 280 278 278 277 278 279 279 279
273 273 272 271 273 275 273 273 273 273 272 271 272 273 273 275 278 281 282 282 283 280 279 280 281 284 284 284 284 284 285 285 280 279 277 277 276 277 277 275 275 275 276
270 268 268 270 273 273 271 271 270 270 269 270 271 272 273 275 275 280 280 282 282 279 280 281 283 283 283 282 283 283 281 279 278 276 276 277 276 277 273 272 272 273 273
267 268 269 269 269 269 271 271 269 268 268 270 271 273 274 275 275 276 278 278 279 279 280 279 280 280 281 280 279 279 278 278 277 276 276 277 274 269 269 271 271 270 270
268 267 267 267 266 267 269 268 270 271 272 270 270 273 274 274 275 279 279 277 277 278 278 276 275 274 273 274 274 275 275 275 274 275 274 274 276 273 273 272 272 270 269
266 266 265 266 265 266 266 266 272 274 276 277 277 276 275 277 278 279 279 279 279 280 273 269 269 270 270 270 271 272 273 274 274 273 274 275 275 274 272 272 271 269 268
266 267 265 266 265 264 264 264 263 267 272 273 274 274 275 276 276 276 277 278 277 274 264 267 267 268 269 269 270 270 270 272 273 273 273 274 274 274 273 272 270 269 268
262 263 263 263 262 261 261 261 261 260 261 263 268 271 272 273 274 275 275 272 265 266 258 264 265 266 267 267 267 269 267 267 268 269 271 272 272 273 272 272 271 269 268
261 260 260 259 259 259 259 258 258 257 256 258 262 266 265 270 272 273 272 259 260 262 263 263 264 265 265 266 266 266 266 266 266 266 268 271 273 272 272 272 271 270 270
257 260 259 257 256 256 256 256 256 255 255 254 255 257 260 262 265 263 262 258 256 260 262 263 263 264 264 264 264 265 264 265 265 265 267 269 270 272 272 271 271 270 269
258 256 258 254 254 254 254 254 255 254 254 254 257 259 269 264 258 260 260 261 261 261 262 262 263 263 263 263 263 263 263 263 264 264 265 266 268 268 271 271 271 271 269
257 256 254 254 254 254 253 254 254 253 253 254 257 257 266 256 256 258 259 260 260 261 262 262 262 263 263 263 263 263 262 262 263 263 264 264 265 266 268 270 270 269 268
257 255 253 253 254 255 254 253 252 252 252 252 254 256 256 256 256 258 258 259 259 260 261 262 262 262 263 263 263 262 261 261 262 263 263 263 263 264 266 267 268 268 267
256 255 255 252 253 255 256 255 253 253 252 252 252 253 253 254 257 258 258 259 259 260 260 261 261 261 261 261 261 262 262 262 262 262 263 262 262 263 265 266 267 267 267
255 256 257 258 257 257 258 256 254 253 252 252 253 251 252 254 256 257 258 259 259 260 260 260 261 261 260 259 259 259 259 260 261 262 263 263 263 263 264 265 266 266 265
259 259 259 258 258 258 256 255 253 252 252 254 254 253 252 254 255 256 257 258 259 259 259 259 259 258 258 259 259 260 261 263 263 263 264 265 264 264 265 264 265 265 264
Wind_Speed
13 8 7 8 10 8 7 6 5 5 7 7 7 5 5 6 6 5 6 5 5 5 5 5 5 5 4 4 4 3 4 3 6 5 2 1 2 5 4 4 4 6 4
9 7 9 8 9 9 6 7 5 7 5 4 4 5 6 6 4 4 5 5 6 7 7 8 7 6 7 5 6 8 7 7 6 13 4 2 3 3 3 3 4 4 4
7 8 6 9 9 7 7 6 7 6 6 6 6 6 6 5 6 6 5 5 5 5 6 6 7 7 7 5 5 6 5 5 5 7 8 1 3 1 2 2 3 4 4
6 6 9 9 7 7 6 6 6 6 5 6 5 5 5 5 5 6 5 5 5 4 4 5 5 5 6 7 6 5 5 6 5 6 7 6 3 1 2 3 5 3 5
7 9 8 7 6 6 6 6 6 6 5 5 5 5 5 5 5 6 5 5 6 7 5 5 5 5 9 8 5 5 6 5 6 8 9 6 3 2 3 2 4 3 3
9 9 6 7 6 6 6 6 6 6 6 6 6 6 6 5 12 14 11 6 6 6 8 8 6 6 6 12 13 13 10 7 8 6 9 10 8 4 3 3 4 2 4
8 7 7 6 6 6 6 6 6 5 5 6 7 7 8 7 16 16 15 6 7 7 7 7 9 7 8 7 10 12 9 12 13 9 12 11 12 9 3 4 6 5 7
7 6 5 5 5 5 4 5 6 5 8 7 7 7 7 6 15 15 14 5 5 6 6 6 6 8 9 10 9 8 7 7 6 6 7 9 9 7 7 8 7 6 1
6 6 5 5 4 4 6 6 5 5 4 4 4 5 5 5 13 15 12 5 6 6 5 5 6 6 11 17 10 10 10 9 7 13 15 17 18 18 15 4 5 4 8
4 4 3 4 6 7 6 6 3 3 5 5 6 5 5 6 11 13 10 4 8 7 6 6 8 8 18 19 13 13 14 13 10 7 5 7 8 8 14 8 7 8 7
4 4 5 4 3 2 3 2 4 5 5 5 7 5 5 5 7 15 15 6 7 8 8 9 8 19 22 23 22 12 11 16 13 8 7 6 5 5 4 4 4 5 7
4 3 1 2 3 3 3 3 4 4 5 6 7 7 3 5 8 11 15 15 13 8 10 9 10 23 25 25 20 22 23 20 8 8 6 6 5 6 6 5 4 2 2
2 1 1 2 2 3 2 2 3 3 2 4 4 5 6 4 3 11 14 17 16 10 9 15 23 23 23 17 20 22 18 8 8 8 8 9 6 7 2 2 2 2 3
3 2 2 3 1 1 1 2 2 2 2 2 3 5 8 8 6 4 6 7 10 10 12 10 15 18 17 16 10 9 7 7 8 8 9 9 4 1 3 3 3 3 3
4 2 2 2 2 2 2 3 2 4 2 3 3 3 6 7 7 17 16 11 10 13 15 8 8 9 9 9 9 9 6 7 7 8 9 9 9 6 7 4 5 4 6
3 3 3 2 2 1 2 2 4 5 7 10 9 6 4 13 18 21 22 23 23 23 8 8 9 8 9 10 10 9 9 11 8 8 9 9 9 9 8 6 6 6 7
5 4 2 3 2 2 1 2 4 4 7 5 5 11 13 14 18 20 20 20 18 18 4 7 8 8 9 9 9 10 11 8 13 10 9 9 9 9 9 7 6 7 7
5 5 4 3 3 1 1 1 1 2 4 3 3 10 10 16 18 18 16 14 8 7 2 5 8 8 9 9 9 9 10 10 10 11 12 10 8 9 9 8 7 8 8
5 4 3 3 3 3 2 2 2 2 2 4 7 6 5 17 16 14 17 1 5 7 6 7 7 8 8 9 9 9 10 10 10 11 11 12 10 8 9 9 8 11 10
4 6 5 4 3 3 2 2 1 1 2 3 2 4 6 6 8 8 6 3 3 4 6 7 7 8 8 9 9 9 10 10 10 10 11 11 13 10 9 10 9 8 8
4 4 5 3 3 3 2 2 2 1 2 2 4 3 15 6 4 6 7 7 7 7 8 8 8 8 8 9 9 9 10 10 10 11 10 11 11 12 11 8 9 8 8
4 4 4 4 3 2 2 2 2 2 2 3 5 4 15 2 3 5 5 6 5 6 7 8 8 8 8 9 9 10 10 11 11 11 11 11 12 12 13 11 9 8 7
5 5 3 2 3 3 1 0 1 2 2 3 4 5 4 4 4 6 7 6 6 7 7 7 9 9 8 8 8 9 10 11 11 11 12 13 12 12 11 12 10 8 7
5 5 4 3 3 2 1 2 1 2 3 3 4 4 4 4 6 8 7 7 7 8 7 8 8 11 10 9 9 9 10 11 11 12 15 13 13 13 12 11 10 9 8
5 4 4 3 3 2 1 1 1 2 2 3 4 3 3 4 6 7 7 7 8 8 9 9 10 13 13 14 15 16 16 17 15 16 12 14 15 16 13 11 11 8 8
5 4 3 3 2 1 1 1 2 2 3 4 4 4 5 6 7 7 8 8 8 9 12 10 12 15 16 14 16 17 18 20 18 20 15 12 11 11 10 10 11 7 7
Wind_Direction
72 84 81 75 76 68 61 45 43 52 32 21 11 7 21 29 21 13 13 0 349 331 329 333 321 325 309 307 318 289 273 239 277 293 266 233 260 239 212 222 231 232 214
68 70 70 78 83 73 51 41 24 49 36 34 22 21 15 15 6 23 6 359 353 349 340 339 332 338 329 327 326 316 307 309 295 296 303 290 268 302 305 304 266 263 252
86 79 83 75 70 64 54 40 36 31 29 22 26 19 14 5 4 10 7 357 346 331 335 330 324 332 332 334 337 321 318 308 295 289 293 185 254 260 321 291 290 268 268
96 100 77 68 60 60 53 42 39 26 24 18 15 11 6 2 13 357 348 341 332 327 307 303 310 321 321 320 312 293 301 302 289 275 282 275 223 207 252 275 281 227 262
91 73 62 62 59 50 47 34 30 29 17 5 5 6 6 7 7 354 347 334 333 329 324 319 316 306 297 295 315 307 295 286 288 288 284 282 261 208 211 210 247 249 246
75 69 59 53 49 42 30 22 25 14 5 8 4 355 1 1 352 355 352 337 326 322 329 331 319 307 316 323 320 314 301 301 293 287 297 294 291 243 204 231 243 241 283
78 65 53 45 45 30 23 22 14 357 351 4 358 356 353 349 357 355 353 347 341 336 331 330 335 331 327 321 321 323 310 291 278 281 282 281 289 289 251 236 224 220 246
70 65 52 45 42 24 21 17 11 7 6 356 343 345 343 345 349 348 345 329 312 296 297 303 301 306 320 330 321 310 299 287 286 279 274 280 279 276 263 271 268 256 349
68 60 44 36 33 27 25 12 10 3 336 315 322 323 332 329 347 348 348 334 322 317 304 301 304 305 308 326 321 314 306 298 273 289 290 294 297 297 289 294 277 241 263
82 72 54 37 29 22 11 350 311 299 310 323 323 333 325 325 342 345 348 328 336 330 328 320 307 319 331 329 323 321 314 311 307 289 273 281 293 292 295 277 267 247 245
87 62 45 33 11 334 314 305 327 328 327 329 323 322 317 323 331 341 344 343 335 326 322 322 318 322 324 323 321 313 299 314 307 296 286 276 260 255 260 267 261 251 250
102 80 37 1 353 1 349 325 330 326 331 325 327 330 320 311 321 336 345 340 332 326 321 316 313 318 320 317 319 313 313 316 306 298 288 287 268 265 248 222 228 256 252
134 209 353 351 335 339 322 321 330 304 313 323 325 319 322 325 304 328 329 329 332 323 314 311 316 315 315 315 310 312 316 306 303 301 299 296 271 264 195 226 242 270 267
178 208 207 214 248 294 308 302 250 275 271 291 320 338 332 326 327 312 312 318 311 318 314 311 314 317 315 312 308 298 290 290 291 293 294 294 298 256 233 206 232 214 242
199 187 212 195 207 250 273 238 242 238 228 249 241 269 311 314 318 326 328 329 325 320 325 325 328 330 326 326 324 321 303 291 289 290 293 295 295 273 261 227 239 215 229
159 192 197 193 197 211 242 259 334 323 320 313 318 338 327 322 323 329 330 327 325 332 345 336 325 324 321 322 319 315 322 319 303 290 291 290 289 286 268 252 235 224 237
197 192 176 180 185 186 44 37 337 329 317 351 2 346 332 326 334 329 328 326 348 342 327 319 312 312 313 313 317 318 311 322 327 306 285 286 290 286 273 260 238 237 241
194 192 185 175 137 126 184 227 247 284 320 306 327 332 342 340 333 330 334 354 333 331 275 303 312 313 314 315 314 315 322 316 318 314 310 288 278 281 280 266 248 242 245
185 192 164 129 154 189 198 216 227 240 262 279 323 342 346 333 329 338 343 17 315 316 313 308 306 308 310 309 307 308 309 308 309 308 305 305 290 280 277 274 257 244 243
183 164 147 149 161 187 198 191 211 246 280 278 277 271 313 323 341 340 338 316 290 295 305 307 309 307 306 307 307 308 307 307 309 308 305 313 316 294 285 277 271 255 245
165 157 151 136 167 185 178 197 233 244 283 281 277 267 315 341 321 314 313 315 311 309 310 308 306 304 303 303 304 305 305 305 304 303 307 308 310 309 300 280 274 264 249
153 150 152 172 157 163 195 206 226 239 250 276 293 297 328 318 283 289 289 289 288 289 292 293 294 295 296 298 300 300 302 302 303 302 304 305 305 303 303 288 275 266 250
147 147 138 142 161 165 168 208 245 283 282 266 270 287 302 306 295 291 289 286 283 286 288 290 293 293 290 291 295 297 297 298 299 303 302 299 298 296 293 294 281 266 251
137 143 152 157 153 150 171 234 257 280 278 282 287 283 279 276 289 293 291 294 294 292 289 289 292 291 293 292 292 290 291 293 293 292 293 290 289 292 289 286 282 270 257
135 142 150 154 164 176 245 352 325 292 288 280 283 268 270 271 287 290 294 295 295 296 298 298 296 293 290 291 288 288 287 289 286 282 283 283 281 281 278 280 278 267 248
143 144 143 139 150 142 38 340 288 273 284 297 288 273 272 288 291 294 298 300 303 303 302 296 291 289 288 287 289 289 292 295 298 287 278 275 277 282 268 272 272 259 245